Robstown, TX

12:31 PM CDT on May 26, 2017 (GMT -0500)
Robstown

Weather History for KRBO - January, 2012

Change the Weather History Date:

Wednesday, January 4, 2012

  Actual Average (KCRP) Record (KCRP)
Temperature  
Mean Temperature 60 °F -  
Max Temperature 77 °F 66 °F 88 °F (1997)
Min Temperature 44 °F 45 °F 24 °F (1947)
Degree Days  
Heating Degree Days 4    
Growing Degree Days 10 (Base 50)    
Moisture  
Dew Point 52 °F    
Average Humidity 77    
Maximum Humidity 100    
Minimum Humidity 43    
Precipitation  
Precipitation 0.00 in - - ()
Sea Level Pressure  
Sea Level Pressure 30.24 in    
Wind  
Wind Speed 8 mph (SSE)    
Max Wind Speed 22 mph    
Max Gust Speed 29 mph    
Visibility 10 miles    
Events      
Averages and records for this station are not official NWS values.
T = Trace of Precipitation, MM = Missing Value Source: NWS Daily Summary

Daily Weather History Graph

Daily Weather History Graph

Search for Another Location

Airport or City:

Trip Planner

Search our weather history database for the weather conditions in past years. The results will help you decide how hot, cold, wet, or windy it might be!

Date:

Astronomy

Jan. 04, 2012 Rise Set
Actual Time 7:22 AM CST 5:48 PM CST
Civil Twilight 6:56 AM CST 6:14 PM CST
Nautical Twilight 6:27 AM CST 6:43 PM CST
Astronomical Twilight 5:59 AM CST 7:12 PM CST
Moon 2:10 PM CST (1/4) 3:15 AM CST (1/4)
Length of Visible Light 11h 17m
Length of Day
10h 26m
Waxing Gibbous, 81% of the Moon is Illuminated
Jan 4
Waxing Gibbous
Jan 9
Full
Jan 16
Last Quarter
Jan 23
New
Jan 30
First Quarter

Hourly Weather History & Observations

Time (CST) Temp. Windchill Dew Point Humidity Pressure Visibility Wind Dir Wind Speed Gust Speed Precip Events Conditions
12:15 AM 46.8 °F - 41.5 °F 82% 30.30 in 10.0 mi South 9.2 mph - N/A   Clear
12:35 AM 47.3 °F - 44.6 °F 90% 30.30 in 10.0 mi South 6.9 mph - N/A   Clear
12:55 AM 46.8 °F - 46.0 °F 97% 30.29 in 10.0 mi South 6.9 mph - N/A   Clear
1:15 AM 46.4 °F 42.4 °F 46.6 °F 100% 30.27 in 10.0 mi South 8.1 mph - N/A   Clear
1:35 AM 46.4 °F 42.9 °F 46.6 °F 100% 30.26 in 10.0 mi South 6.9 mph - N/A   Clear
1:55 AM 45.3 °F 43.0 °F 43.7 °F 94% 30.26 in 10.0 mi South 4.6 mph - N/A   Clear
2:15 AM 45.1 °F 43.7 °F 41.4 °F 87% 30.26 in 10.0 mi South 3.5 mph - N/A   Clear
2:35 AM 45.9 °F - 41.7 °F 85% 30.26 in 10.0 mi Calm Calm - N/A   Clear
2:55 AM 45.9 °F 44.6 °F 41.9 °F 86% 30.25 in 10.0 mi SW 3.5 mph - N/A   Clear
3:15 AM 46.2 °F 44.1 °F 43.5 °F 90% 30.25 in 10.0 mi SW 4.6 mph - N/A   Clear
3:55 AM 45.0 °F 43.5 °F 43.3 °F 94% 30.24 in 10.0 mi South 3.5 mph - N/A   Clear
4:15 AM - - - N/A% 30.24 in 10.0 mi South 4.6 mph - N/A   Clear
4:35 AM 45.9 °F - 46.0 °F 100% 30.24 in 10.0 mi Calm Calm - N/A   Clear
4:55 AM 45.9 °F 43.6 °F 45.9 °F 100% 30.22 in 10.0 mi SE 4.6 mph - N/A   Clear
5:15 AM 44.2 °F 42.7 °F 44.4 °F 100% 30.22 in 10.0 mi ESE 3.5 mph - N/A   Clear
5:35 AM 44.8 °F 43.3 °F 44.8 °F 100% 30.22 in 10.0 mi SE 3.5 mph - N/A   Clear
5:55 AM - - - N/A% 30.22 in 10.0 mi East 3.5 mph - N/A   Clear
6:15 AM 46.0 °F 43.1 °F 46.2 °F 100% 30.22 in 10.0 mi SE 5.8 mph - N/A   Clear
6:35 AM 44.6 °F 43.1 °F 44.8 °F 100% 30.23 in 10.0 mi ESE 3.5 mph - N/A   Clear
6:55 AM - - - N/A% 30.24 in 10.0 mi East 3.5 mph - N/A   Clear
7:15 AM 46.2 °F 44.1 °F 46.2 °F 100% 30.24 in 10.0 mi ESE 4.6 mph - N/A   Clear
7:35 AM 44.6 °F 40.7 °F 44.8 °F 100% 30.24 in 10.0 mi ESE 6.9 mph - N/A   Clear
7:55 AM 45.9 °F 43.6 °F 46.2 °F 100% 30.26 in 10.0 mi East 4.6 mph - N/A   Clear
8:15 AM 50.0 °F - 50.2 °F 100% 30.26 in 10.0 mi Calm Calm - N/A   Clear
8:35 AM 52.7 °F - 52.7 °F 100% 30.27 in 10.0 mi Calm Calm - N/A   Clear
8:55 AM 54.7 °F - 54.7 °F 100% 30.27 in 10.0 mi SSE 3.5 mph - N/A   Clear
9:15 AM 56.8 °F - 54.7 °F 92% 30.28 in 10.0 mi SSE 5.8 mph - N/A   Clear
9:35 AM 59.9 °F - 54.3 °F 82% 30.29 in 10.0 mi South 9.2 mph - N/A   Clear
9:55 AM 63.0 °F - 53.8 °F 72% 30.29 in 10.0 mi South 11.5 mph - N/A   Clear
10:15 AM 66.0 °F - 54.5 °F 66% 30.28 in 10.0 mi South 11.5 mph - N/A   Clear
10:35 AM 68.2 °F - 55.2 °F 63% 30.29 in 10.0 mi South 16.1 mph 20.7 mph N/A   Clear
10:55 AM 70.9 °F - 55.9 °F 59% 30.27 in 10.0 mi South 20.7 mph 25.3 mph N/A   Clear
11:15 AM 72.3 °F - 56.3 °F 57% 30.27 in 10.0 mi South 18.4 mph 27.6 mph N/A   Clear
11:35 AM 73.8 °F - 56.3 °F 54% 30.26 in 10.0 mi South 21.9 mph 26.5 mph N/A   Clear
11:55 AM 74.7 °F - 55.6 °F 51% 30.25 in 10.0 mi South 20.7 mph 28.8 mph N/A   Scattered Clouds
12:15 PM 75.4 °F - 54.9 °F 49% 30.23 in 10.0 mi South 20.7 mph 25.3 mph N/A   Scattered Clouds
12:35 PM 75.9 °F - 54.5 °F 47% 30.22 in 10.0 mi SSE 15.0 mph 23.0 mph N/A   Scattered Clouds
1:15 PM 77.2 °F - 53.6 °F 44% 30.19 in 10.0 mi South 15.0 mph 21.9 mph N/A   Scattered Clouds
1:35 PM 77.5 °F - 53.4 °F 43% 30.18 in 10.0 mi South 11.5 mph 20.7 mph N/A   Scattered Clouds
1:55 PM 77.4 °F - 54.7 °F 45% 30.18 in 10.0 mi South 10.4 mph 20.7 mph N/A   Mostly Cloudy
2:15 PM 77.5 °F - 56.3 °F 48% 30.17 in 10.0 mi SSE 18.4 mph - N/A   Scattered Clouds
3:15 PM 77.4 °F - 55.8 °F 47% 30.16 in 10.0 mi SSE 15.0 mph - N/A   Clear
3:35 PM 77.2 °F - 56.1 °F 48% 30.17 in 10.0 mi SSE 16.1 mph 20.7 mph N/A   Clear
4:15 PM 75.6 °F - 57.2 °F 53% 30.17 in 10.0 mi SE 17.3 mph 21.9 mph N/A   Clear
4:35 PM 75.0 °F - 57.2 °F 54% 30.18 in 10.0 mi SSE 17.3 mph - N/A   Clear
4:55 PM 74.1 °F - 57.9 °F 57% 30.19 in 10.0 mi SSE 17.3 mph - N/A   Clear
5:15 PM 73.0 °F - 58.1 °F 59% 30.18 in 10.0 mi SSE 18.4 mph 24.2 mph N/A   Clear
5:35 PM 71.8 °F - 57.9 °F 62% 30.19 in 10.0 mi SE 13.8 mph - N/A   Clear
5:55 PM 70.5 °F - 57.7 °F 64% 30.20 in 10.0 mi SE 11.5 mph - N/A   Clear
6:15 PM 69.1 °F - 57.4 °F 66% 30.21 in 10.0 mi SE 10.4 mph - N/A   Clear
6:55 PM 66.6 °F - 57.0 °F 71% 30.22 in 10.0 mi ESE 9.2 mph - N/A   Clear
7:15 PM 65.7 °F - 57.2 °F 74% 30.23 in 10.0 mi SE 9.2 mph - N/A   Clear
7:55 PM 64.2 °F - 57.6 °F 79% 30.24 in 10.0 mi SE 8.1 mph - N/A   Clear
8:15 PM 63.7 °F - 57.6 °F 80% 30.24 in 10.0 mi SE 9.2 mph - N/A   Clear
8:35 PM 63.5 °F - 57.9 °F 82% 30.24 in 10.0 mi SE 9.2 mph - N/A   Clear
8:55 PM 63.3 °F - 59.4 °F 87% 30.25 in 10.0 mi SSE 9.2 mph - N/A   Clear
9:15 PM 63.5 °F - 60.4 °F 90% 30.25 in 10.0 mi SSE 9.2 mph - N/A   Clear
9:35 PM 63.7 °F - 60.3 °F 89% 30.25 in 10.0 mi SSE 9.2 mph - N/A   Clear
9:55 PM 63.5 °F - 60.4 °F 90% 30.26 in 10.0 mi SSE 8.1 mph - N/A   Clear
10:15 PM 62.8 °F - 60.8 °F 93% 30.26 in 10.0 mi SSE 6.9 mph - N/A   Clear
10:35 PM 62.4 °F - 62.4 °F 100% 30.26 in 10.0 mi SSE 6.9 mph - N/A   Mostly Cloudy
10:55 PM 63.1 °F - 61.3 °F 94% 30.26 in 10.0 mi SSE 8.1 mph - N/A   Overcast
11:15 PM 63.7 °F - 63.0 °F 97% 30.26 in 10.0 mi SSE 8.1 mph - N/A   Mostly Cloudy
11:35 PM 63.5 °F - 63.7 °F 100% 30.26 in 10.0 mi SSE 8.1 mph - N/A   Scattered Clouds
11:55 PM 63.1 °F - 63.3 °F 100% 30.27 in 10.0 mi SSE 5.8 mph - N/A   Scattered Clouds